[[{"header":{"parameterUnit":"m.s-1","parameterCategory":1,"la1":30.2991,"la2":30.254,"lo1":-89.0895,"lo2":-89.0444,"dy":0.0017,"dx":0.0017,"nx":28,"ny":28,"refTime":"2025-08-01T21:00:00:Z","depth":0,"parameterNumber":2,"parameterNumberName":"U-component_of_WINDS"},"data":[0,0,0,0,0,0,0,0,0,0,0,0,0,0,0,0,0,0,0,0,0,0,0,0,0,0,0,0,0,0,0,0,0,0,0,0,0,0,0,0,0,0,0,0,0,0,0,0,0,0,0,0,0,0,0,0,0,0,3.4407,3.4409,0,3.4506,3.4507,3.4508,3.4443,3.444,3.4437,3.4435,3.454,3.4545,3.4551,0,0,0,0,0,0,0,0,0,0,0,0,0,3.4168,3.4173,3.4407,3.4409,3.441,3.4505,3.4507,3.4508,3.4444,3.444,3.4437,3.4433,3.4538,3.4545,3.4551,0,0,0,0,0,0,0,0,0,0,0,0,0,3.427,3.4174,3.4407,3.4389,3.4389,3.4505,3.4507,3.4509,3.4445,3.444,3.4436,3.4432,3.4536,3.4544,3.4552,3.4694,0,0,3.4578,3.4582,0,0,0,0,0,0,0,0,3.4264,3.4279,3.4391,3.4391,3.439,3.4458,3.4461,3.4571,3.4446,3.4424,3.4435,3.4429,3.4517,3.4526,3.4555,3.4698,3.4703,3.4579,3.4584,3.4587,3.459,0,0,0,0,0,0,0,3.4257,3.4274,3.4446,3.4392,3.4392,3.4377,3.4387,3.4481,3.4494,3.4425,3.4421,3.4433,3.4516,3.4547,3.4557,3.4705,3.4578,3.4586,3.4591,3.4594,3.4968,3.4972,0,0,0,0,0,0,3.4251,3.4269,3.4443,3.4449,3.4315,3.4385,3.4396,3.4441,3.4493,3.4496,3.4437,3.443,3.4535,3.4547,3.456,3.4727,3.4587,3.4595,3.46,3.4963,3.4969,3.4974,0,0,0,0,0,0,3.4246,3.4267,3.4439,3.4358,3.4378,3.4394,3.4445,3.4445,3.4476,3.4501,3.4504,3.4466,3.4531,3.4548,3.466,3.473,3.4599,3.4607,3.4957,3.4965,3.4972,3.5063,0,0,0,0,0,0,3.4239,3.4266,3.4319,3.4359,3.4383,3.4537,3.4449,3.445,3.449,3.4481,3.4529,3.4533,3.4529,3.4648,3.4668,3.4739,3.4613,3.4951,3.4961,3.4969,3.5054,3.5073,3.5089,0,0,0,0,0,3.4231,3.4342,3.4322,3.4343,3.4449,3.4541,3.4554,3.4546,3.4496,3.4549,3.4566,3.4532,3.4719,3.466,3.4682,3.4757,3.4947,3.4958,3.4969,3.5046,3.5069,3.5088,0,0,0,0,0,0,3.4311,3.4347,3.4325,3.4452,3.4494,3.453,3.4597,3.4571,3.4629,3.4619,3.4608,3.462,3.4736,3.4758,3.4691,3.4895,3.4825,3.4841,3.4876,3.4898,3.4915,3.4907,3.462,0,0,0,0,0,3.4343,3.4413,3.4441,3.4551,3.4573,3.4582,3.4621,3.4611,3.4654,3.4672,3.4697,3.4742,3.481,3.4856,3.4921,3.5057,3.5066,3.512,3.5137,3.5151,3.5165,3.5237,3.526,3.501,3.501,3.501,0,0,3.441,3.4439,3.4484,3.4567,3.4598,3.4672,3.4597,3.4678,3.4732,3.4685,3.4791,3.4811,3.486,3.4984,3.5041,3.5006,3.5236,3.5165,3.5176,3.5182,3.5251,3.5274,3.5295,3.5018,3.5016,3.5015,0,0,3.4569,3.4599,3.4692,3.4724,3.4772,3.4777,3.4799,3.484,3.485,3.4956,3.4922,3.4988,3.5107,3.5142,3.5176,3.535,3.532,3.5371,3.5462,3.5532,3.5552,3.5569,3.5629,3.5651,3.5385,3.5385,3.5386,0,3.4647,3.4755,3.4744,3.4827,3.4864,3.4823,3.4918,3.4951,3.5018,3.5045,3.5005,3.5153,3.5184,3.5315,3.5356,3.5386,3.5411,3.5365,3.555,3.5567,3.5583,3.564,3.5663,3.5391,3.5391,3.539,3.5389,0,3.4848,3.4923,3.4993,3.5056,3.5102,3.5191,3.5193,3.5242,3.5228,3.5238,3.5346,3.5381,3.5452,3.5483,3.5472,3.5613,3.5589,3.5551,3.5479,3.5613,3.5666,3.5688,3.5399,3.5397,3.5396,3.5394,0,0,3.5058,3.5114,3.5139,3.5167,3.5217,3.5275,3.5363,3.543,3.547,3.5519,3.5591,3.5693,3.5656,3.5695,3.5687,3.575,3.5882,3.5703,3.5704,3.5733,3.6038,3.6066,3.6091,3.5864,3.5868,3.5871,3.6033,0,3.5219,3.5368,3.536,3.5501,3.557,3.5533,3.5609,3.5648,3.566,3.5721,3.5735,3.5806,3.5753,3.5776,3.5836,3.5853,3.5943,3.5842,3.5931,3.5934,3.5917,3.6119,3.6149,3.63,3.6054,3.6058,3.6061,0,3.5425,3.5478,3.5625,3.5663,3.5691,3.576,3.582,3.5879,3.5923,3.5927,3.597,3.5952,3.6041,3.5969,3.6091,3.6023,3.6059,3.6073,3.6079,3.6085,3.6004,3.6129,3.6348,3.637,3.6094,3.6091,3.6089,0,3.5561,3.567,3.5771,3.5796,3.5844,3.5892,3.5915,3.5954,3.5994,3.6048,3.6074,3.6139,3.6174,3.6225,3.6225,3.6173,3.6348,3.6277,3.6354,3.6354,3.6391,3.6388,3.6616,3.6418,3.6418,3.6417,3.6417,0,3.574,3.5831,3.5832,3.5895,3.5995,3.5987,3.6087,3.6105,3.614,3.6205,3.6179,3.6241,3.6239,3.6303,3.6304,3.6404,3.6421,3.6427,3.6426,3.6428,3.6427,3.645,3.6439,3.6423,3.6422,3.6421,3.642,0,3.5908,3.5913,3.602,3.6056,3.6067,3.614,3.6171,3.623,3.624,3.6323,3.6342,3.6358,3.6431,3.6437,3.6523,3.6524,3.6645,3.6633,3.6629,3.6626,3.6702,3.6694,3.6952,3.6985,3.6767,3.6769,3.6771,0,3.602,3.6089,3.6131,3.6172,3.6197,3.6264,3.6304,3.6299,3.6343,3.6398,3.6451,3.6521,3.6577,3.6697,3.6716,3.6782,3.6771,3.6857,3.678,3.678,3.6769,3.6764,3.6771,3.6871,3.6873,3.6875,3.6877,0,3.6218,3.6217,3.6276,3.6336,3.6384,3.6432,3.6476,3.6512,3.6512,3.6563,3.6636,3.668,3.6766,3.6837,3.6901,3.6925,3.6901,3.6901,3.6922,3.6923,3.6917,3.6919,3.6667,3.6894,3.6893,3.6891,3.689,3.689,3.636,3.6419,3.6457,3.6524,3.6556,3.6598,3.6655,3.6671,3.6732,3.68,3.6794,3.6876,3.6918,3.7001,3.7031,3.7095,3.7066,3.7097,3.7104,3.7112,3.7118,3.6909,3.7107,3.7107,3.7106,3.7106,3.7105,0,3.6554,3.6577,3.6639,3.67,3.6753,3.6725,3.6772,3.6818,3.6889,3.693,3.6985,3.707,3.7138,3.7163,3.7229,3.7276,3.7267,3.7294,3.7289,3.7295,3.7141,3.7115,3.73,3.73,3.73,3.73,3.73,3.73,3.6662,3.6758,3.6762,3.6875,3.6898,3.6976,3.7005,3.7044,3.7076,3.7171,3.7227,3.7242,3.7277,3.7345,3.7407,3.7413,3.7438,3.7469,3.747,3.7326,3.7306,3.7287,3.7262,3.7475,3.7475,3.7617,3.7619,3.762]},{"header":{"parameterUnit":"m.s-1","parameterCategory":1,"la1":30.2991,"la2":30.254,"lo1":-89.0895,"lo2":-89.0444,"dy":0.0017,"dx":0.0017,"nx":28,"ny":28,"refTime":"2025-08-01T21:00:00:Z","depth":0,"parameterNumber":3,"parameterNumberName":"V-component_of_WINDS"},"data":[0,0,0,0,0,0,0,0,0,0,0,0,0,0,0,0,0,0,0,0,0,0,0,0,0,0,0,0,0,0,0,0,0,0,0,0,0,0,0,0,0,0,0,0,0,0,0,0,0,0,0,0,0,0,0,0,0,0,2.7056,2.7056,0,2.7089,2.7089,2.7089,2.7074,2.7074,2.7073,2.7072,2.7102,2.7103,2.7105,0,0,0,0,0,0,0,0,0,0,0,0,0,2.6976,2.6977,2.7056,2.7056,2.7057,2.7089,2.7089,2.7089,2.7075,2.7074,2.7073,2.7072,2.7101,2.7103,2.7105,0,0,0,0,0,0,0,0,0,0,0,0,0,2.701,2.6978,2.7056,2.7053,2.7053,2.7088,2.7089,2.7089,2.7075,2.7074,2.7072,2.7071,2.7101,2.7103,2.7105,2.7143,0,0,2.7112,2.7113,0,0,0,0,0,0,0,0,2.7008,2.7013,2.7053,2.7053,2.7054,2.7076,2.7072,2.7107,2.7075,2.7067,2.7072,2.7071,2.7094,2.7097,2.7105,2.7145,2.7146,2.7112,2.7114,2.7115,2.7115,0,0,0,0,0,0,0,2.7005,2.7011,2.7069,2.7054,2.7054,2.7049,2.7052,2.7078,2.7086,2.7067,2.7066,2.707,2.7094,2.7103,2.7106,2.7146,2.7112,2.7114,2.7116,2.7117,2.7217,2.7218,0,0,0,0,0,0,2.7004,2.7009,2.7068,2.707,2.7027,2.7051,2.7055,2.707,2.7086,2.7087,2.7071,2.707,2.71,2.7103,2.7107,2.7151,2.7115,2.7117,2.7118,2.7216,2.7217,2.7219,0,0,0,0,0,0,2.7002,2.7009,2.7066,2.7039,2.7046,2.7054,2.7071,2.7071,2.7081,2.7089,2.709,2.708,2.7099,2.7104,2.7134,2.7152,2.7118,2.712,2.7214,2.7216,2.7218,2.7241,0,0,0,0,0,0,2.7,2.7009,2.7024,2.704,2.7048,2.7094,2.7072,2.7073,2.7085,2.7083,2.7098,2.7099,2.7098,2.7131,2.7137,2.7155,2.7122,2.7213,2.7215,2.7217,2.7239,2.7244,2.7248,0,0,0,0,0,2.6997,2.7029,2.7025,2.7032,2.7068,2.7095,2.71,2.71,2.7087,2.7102,2.7107,2.7098,2.715,2.7134,2.714,2.7159,2.7211,2.7214,2.7217,2.7237,2.7243,2.7248,0,0,0,0,0,0,2.7014,2.7031,2.7027,2.7065,2.7079,2.7093,2.7112,2.7106,2.7123,2.7121,2.7119,2.7122,2.7154,2.716,2.7142,2.7196,2.7178,2.7183,2.7191,2.7197,2.7201,2.7198,2.7124,0,0,0,0,0,2.7022,2.7045,2.7058,2.709,2.7098,2.7104,2.7116,2.7115,2.7129,2.7134,2.7142,2.7155,2.7173,2.7186,2.7204,2.724,2.7242,2.7256,2.7261,2.7265,2.7267,2.7286,2.7291,2.7228,2.7228,2.7228,0,0,2.7039,2.7051,2.7066,2.7094,2.7105,2.7126,2.7109,2.7133,2.7148,2.7137,2.7167,2.7173,2.7187,2.722,2.7235,2.7226,2.7286,2.7268,2.7271,2.7272,2.7289,2.7295,2.73,2.723,2.723,2.7229,0,0,2.7081,2.7094,2.7121,2.7132,2.7149,2.7153,2.716,2.7175,2.7179,2.7208,2.72,2.7218,2.7251,2.7261,2.727,2.7316,2.7308,2.7322,2.7345,2.7362,2.7367,2.7372,2.7386,2.7391,2.7326,2.7326,2.7326,0,2.7099,2.7133,2.7135,2.716,2.7172,2.7165,2.7191,2.7202,2.7223,2.7231,2.7221,2.7262,2.7271,2.7306,2.7317,2.7326,2.7331,2.7319,2.7367,2.7371,2.7375,2.7389,2.7394,2.7327,2.7327,2.7327,2.7327,0,2.7154,2.7178,2.7198,2.722,2.7234,2.726,2.7264,2.7278,2.7276,2.728,2.731,2.7321,2.734,2.7349,2.7347,2.7383,2.7377,2.7367,2.7348,2.7383,2.7395,2.7401,2.7329,2.7329,2.7328,2.7328,0,0,2.7206,2.7229,2.7236,2.7245,2.7264,2.7281,2.7306,2.7326,2.7338,2.7353,2.7372,2.74,2.7392,2.7402,2.7401,2.7417,2.745,2.7405,2.7405,2.7411,2.7488,2.7494,2.75,2.7446,2.7447,2.7448,2.7487,0,2.7247,2.7292,2.7294,2.7334,2.7354,2.7348,2.7369,2.7382,2.7387,2.7404,2.7409,2.7428,2.7416,2.7422,2.7438,2.7443,2.7465,2.744,2.7461,2.7462,2.7456,2.7507,2.7513,2.755,2.7492,2.7493,2.7493,0,2.7301,2.7319,2.7361,2.7376,2.7384,2.7404,2.7422,2.7439,2.7453,2.7455,2.7467,2.7464,2.7488,2.747,2.7501,2.7484,2.7493,2.7497,2.7499,2.7499,2.7478,2.7507,2.7561,2.7566,2.7502,2.7501,2.75,0,2.7332,2.7366,2.7396,2.7404,2.7423,2.7436,2.7444,2.7457,2.7469,2.7485,2.7492,2.751,2.7519,2.7532,2.7533,2.7521,2.7564,2.7547,2.7565,2.7565,2.7573,2.7572,2.7628,2.7582,2.7582,2.7582,2.7582,0,2.7376,2.7402,2.741,2.7427,2.7455,2.7458,2.7485,2.7492,2.7503,2.7521,2.7517,2.7533,2.7535,2.7551,2.7553,2.7577,2.7582,2.7583,2.7583,2.7582,2.7582,2.7587,2.7583,2.7584,2.7583,2.7583,2.7583,0,2.7415,2.7421,2.7452,2.7468,2.7472,2.7492,2.7504,2.752,2.7525,2.7548,2.7553,2.756,2.7579,2.7583,2.7605,2.7606,2.7635,2.7633,2.763,2.7629,2.7646,2.7644,2.7705,2.7713,2.7665,2.7665,2.7665,0,2.7442,2.7461,2.7479,2.7491,2.75,2.752,2.7532,2.7535,2.7548,2.7565,2.7579,2.7598,2.7613,2.7644,2.765,2.7667,2.7664,2.7685,2.7666,2.7665,2.7662,2.766,2.7661,2.7687,2.7688,2.7688,2.7689,0,2.7488,2.749,2.7509,2.7529,2.7544,2.7559,2.7573,2.7583,2.7588,2.7602,2.7622,2.7634,2.7658,2.7676,2.7693,2.7699,2.7694,2.7695,2.7699,2.7698,2.7695,2.7695,2.7638,2.7693,2.7692,2.7692,2.7692,2.7691,2.752,2.7537,2.7552,2.7572,2.7584,2.7597,2.7613,2.762,2.7637,2.7657,2.7658,2.768,2.7692,2.7714,2.7722,2.7738,2.7732,2.7739,2.774,2.7742,2.7742,2.7694,2.7742,2.7742,2.7742,2.7741,2.7741,0,2.7564,2.7574,2.7593,2.7614,2.7629,2.7625,2.7641,2.7654,2.7673,2.7686,2.7702,2.7724,2.7742,2.775,2.7768,2.7779,2.7777,2.7783,2.7781,2.7782,2.7748,2.7742,2.7784,2.7784,2.7784,2.7784,2.7784,2.7784,2.7589,2.7617,2.7621,2.7653,2.7662,2.7685,2.7694,2.7705,2.7716,2.7742,2.7757,2.7763,2.7773,2.7791,2.7807,2.7809,2.7814,2.7821,2.7822,2.7789,2.7785,2.7781,2.7774,2.7823,2.7823,2.7854,2.7854,2.7854]}]]